User: anonymous   Login
Location: Unspecified
(0.0000°N, 0.0000°E)
Time: 18:51:04
(UTC+00:00)
Language:

GEOS 3 - Orbit

View from above orbital plane
View from above orbital plane
View from above satellite
View from above satellite

Ground track
Ground track

The orbit data is extracted from the following two-line orbital elements,

1  7734U 75027A   17145.84007230 -.00000146 +00000-0 +14333-4 0  9994
2  7734 114.9878 203.4349 0008005 302.2255 057.8047 14.18600010180032
Epoch (UTC): 25 May 2017 20:09:42
Eccentricity: 0.0008005
inclination: 114.9878°
perigee height: 824 km
apogee height: 836 km
right ascension of ascending node: 203.4349°
argument of perigee: 302.2255°
revolutions per day: 14.18600010
mean anomaly at epoch: 57.8047°
orbit number at epoch: 18003

The dashed part of the orbit path shows where the satellite is in the earth's shadow,  

DLR